Weather History for Gillette, WY

Change the Weather History Date:

Saturday, November 17, 2012

  Actual Average Record
Temperature  
Mean Temperature 45 °F 32 °F  
Max Temperature 57 °F 44 °F 72 °F (1999)
Min Temperature 32 °F 20 °F -15 °F (1955)
Degree Days  
Heating Degree Days 20 33  
Month to date heating degree days 457 495  
Since 1 July heating degree days 1254 1404  
Cooling Degree Days 0 0  
Month to date cooling degree days 0 0  
Year to date cooling degree days 795 502  
Moisture  
Dew Point 26 °F    
Average Humidity 52    
Maximum Humidity 76    
Minimum Humidity 27    
Precipitation  
Precipitation 0.00 in 0.02 in 0.17 in (1969)
Month to date precipitation 0.15 0.35  
Year to date precipitation 8.62 13.29  
Sea Level Pressure  
Sea Level Pressure 29.97 in    
Wind  
Wind Speed 10 mph (SW)    
Max Wind Speed 21 mph    
Max Gust Speed 26 mph    
Visibility 10 miles    
Events      
T = Trace of Precipitation, MM = Missing Value Source: NWS Daily Summary

Daily Weather History Graph

Daily Weather History Graph

Search for Another Location

Airport:

Trip Planner

Search our weather history database for the weather conditions in past years. The results will help you decide how hot, cold, wet, or windy it might be!

Date:

Astronomy

Nov. 17, 2012 Rise Set
Actual Time 7:01 AM MST 4:32 PM MST
Civil Twilight 6:29 AM MST 5:04 PM MST
Nautical Twilight 5:54 AM MST 5:39 PM MST
Astronomical Twilight 5:20 AM MST 6:13 PM MST
Moon 10:48 AM MST (11/17) 8:46 PM MST (11/17)
Length of Visible Light 10h 34m
Length of Day
9h 31m
Waxing Crescent, 21% of the Moon is Illuminated
Nov 17
Waxing Crescent
Nov 20
First Quarter
Nov 28
Full
Dec 6
Last Quarter
Dec 13
New

Hourly Weather History & Observations

Time (MST) Temp. Windchill Dew Point Humidity Pressure Visibility Wind Dir Wind Speed Gust Speed Precip Events Conditions
12:53 AM 39.0 °F 29.9 °F 28.9 °F 67% 29.91 in 10.0 mi WSW 17.3 mph - N/A   Clear
1:53 AM 37.0 °F 31.0 °F 27.0 °F 67% 29.94 in 10.0 mi WNW 8.1 mph - N/A   Partly Cloudy
2:53 AM 36.0 °F 28.0 °F 27.0 °F 70% 29.97 in 10.0 mi West 11.5 mph - N/A   Mostly Cloudy
3:53 AM 35.1 °F 26.9 °F 26.1 °F 70% 29.99 in 10.0 mi West 11.5 mph - N/A   Scattered Clouds
4:53 AM 34.0 °F 26.0 °F 24.1 °F 67% 30.01 in 10.0 mi West 10.4 mph - N/A   Clear
5:53 AM 33.1 °F 25.5 °F 23.0 °F 66% 30.04 in 10.0 mi SW 9.2 mph - N/A   Clear
6:53 AM 39.0 °F 34.0 °F 21.9 °F 50% 30.04 in 10.0 mi SW 6.9 mph - N/A   Clear
7:53 AM 39.0 °F 32.8 °F 24.1 °F 55% 30.06 in 10.0 mi WSW 9.2 mph - N/A   Clear
8:53 AM 46.0 °F 41.4 °F 24.1 °F 42% 30.04 in 10.0 mi WSW 9.2 mph - N/A   Clear
9:53 AM 50.0 °F - 25.0 °F 38% 30.02 in 10.0 mi SW 8.1 mph - N/A   Clear
10:53 AM 53.1 °F - 23.0 °F 31% 30.01 in 10.0 mi WSW 4.6 mph - N/A   Clear
11:53 AM 54.0 °F - 23.0 °F 30% 30.00 in 10.0 mi SSW 4.6 mph - N/A   Clear
12:53 PM 55.9 °F - 24.1 °F 29% 29.97 in 10.0 mi Variable 5.8 mph - N/A   Clear
1:53 PM 57.0 °F - 24.1 °F 28% 29.97 in 10.0 mi SSW 6.9 mph - N/A   Clear
2:53 PM 55.9 °F - 23.0 °F 28% 29.96 in 10.0 mi SW 6.9 mph - N/A   Clear
3:53 PM 53.1 °F - 25.0 °F 34% 29.97 in 10.0 mi South 4.6 mph - N/A   Clear
4:53 PM 36.0 °F 30.3 °F 24.1 °F 62% 30.03 in 10.0 mi SSE 6.9 mph - N/A   Clear
5:53 PM 39.0 °F 31.8 °F 25.0 °F 57% 30.00 in 10.0 mi SSE 11.5 mph - N/A   Clear
6:53 PM 37.9 °F 30.9 °F 26.1 °F 62% 29.97 in 10.0 mi South 10.4 mph - N/A   Clear
7:53 PM 41.0 °F 33.9 °F 28.9 °F 62% 29.95 in 10.0 mi South 12.7 mph - N/A   Clear
8:53 PM 43.0 °F 35.7 °F 30.0 °F 60% 29.92 in 10.0 mi SSW 15.0 mph - N/A   Clear
9:53 PM 41.0 °F 32.8 °F 32.0 °F 70% 29.89 in 10.0 mi South 16.1 mph - N/A   Clear
10:53 PM 39.9 °F 32.1 °F 32.0 °F 73% 29.88 in 10.0 mi South 13.8 mph - N/A   Clear
11:53 PM 42.1 °F 33.9 °F 33.1 °F 70% 29.85 in 10.0 mi South 17.3 mph - N/A   Clear